www.pogodaiklimat.ru
ПОГОДА в Сент-Джонсбери
Время
и дата
01:54 19.05
02:54 19.05
03:54 19.05
04:54 19.05
05:54 19.05
06:54 19.05
07:54 19.05
08:54 19.05
09:54 19.05
10:54 19.05
11:54 19.05
12:54 19.05
13:54 19.05
14:54 19.05
15:54 19.05
16:54 19.05
17:54 19.05
18:54 19.05
19:54 19.05
20:54 19.05
21:54 19.05
22:54 19.05
23:54 19.05
00:54 20.05
01:54 20.05
02:54 20.05
03:54 20.05
04:54 20.05
05:54 20.05
06:54 20.05
07:54 20.05
08:54 20.05
09:54 20.05
10:54 20.05
11:54 20.05
12:54 20.05
13:54 20.05
14:54 20.05
15:54 20.05
16:54 20.05
17:54 20.05
18:54 20.05
19:54 20.05
20:54 20.05
21:54 20.05
22:54 20.05
23:54 20.05
00:54 21.05
Ветер
(напр.,м/с)
Видим. Явления Облачность Т
(С)
Тd
(С)
f
(%)
Тe
(С)
Тes
(С)
Комфортность P
(гПа)
Po
(гПа)
Тmin
(С)
Tmax
(С)
R
(мм)
R24
(мм)
S
(см)
н/о н/о +15.0 +11.7 81 +15 +15 1015.3 990.5
н/о н/о +14.4 +11.7 84 +14 +14 1015.3 990.5
н/о н/о +14.4 +11.7 84 +14 +14 1015.6 990.8
н/о н/о +14.4 +11.7 84 +14 +14 1016.1 991.5
н/о н/о +14.4 +11.7 84 +14 +14 1016.6 991.8
н/о н/о +15.6 +11.7 78 +15 +15 1016.9 992.2 +13.9 +15.6 0.5
н/о н/о +16.7 +11.7 72 +17 +17 1017.1 992.2
н/о н/о +18.3 +11.7 65 +19 +19 1016.7 991.8
н/о н/о +18.9 +11.7 63 +20 +20 1016.5 991.8
н/о н/о +20.0 +11.1 57 +21 +21 комфорт 1016.3 991.5
н/о н/о +20.6 +11.1 54 +22 +22 комфорт 1015.7 991.2
н/о н/о +21.1 +10.6 51 +23 +23 комфорт 1015.2 990.5 +15.6 +21.1
н/о н/о +20.6 +11.1 54 +22 +22 комфорт 1014.9 990.2
н/о н/о +21.1 +11.1 53 +23 +23 комфорт 1014.4 989.9
н/о н/о +21.1 +11.1 53 +23 +23 комфорт 1014.6 989.9
н/о н/о +20.6 +11.1 54 +22 +22 комфорт 1014.7 990.2
н/о н/о +20.6 +11.1 54 +22 +22 комфорт 1015.0 990.5
н/о н/о +19.4 +11.1 59 +20 +20 1014.9 990.2 +19.4 +21.1
н/о н/о +16.7 +11.7 72 +17 +17 1015.4 990.5
н/о н/о +14.4 +11.7 84 +14 +14 1016.1 991.2
н/о н/о +13.3 +11.1 87 +13 +13 1016.0 991.2
н/о н/о +12.8 +10.6 86 +12 +12 1016.2 991.5
н/о н/о +11.7 +10.0 89 +11 +11 1016.2 991.2
н/о н/о +11.7 +9.4 86 +11 +11 1016.1 991.2 +11.1 +19.4
н/о н/о +10.6 +9.4 92 +10 +10 1016.2 991.2
н/о н/о +10.6 +8.9 89 +10 +10 1016.0 991.2
н/о н/о +10.0 +8.9 93 +9 +9 1015.9 990.8
н/о н/о +10.0 +8.9 93 +9 +9 1016.3 991.2
н/о н/о +10.6 +9.4 92 +10 +10 1016.6 991.5
н/о н/о +11.7 +10.6 93 +11 +11 1016.8 991.8 +9.4 +11.7
н/о н/о +13.3 +11.7 90 +13 +13 1016.6 991.5
н/о н/о +16.7 +11.7 72 +17 +17 1016.1 991.2
н/о н/о +20.0 +12.2 61 +22 +22 комфорт 1015.4 990.5
н/о н/о +22.2 +12.8 55 +25 +25 комфорт 1014.9 990.2
н/о н/о +24.4 +13.3 50 +27 +27 жарко 1014.2 989.5
н/о н/о +26.7 +13.3 44 +29 +29 жарко 1013.4 988.9 +11.7 +26.7
н/о н/о +27.2 +13.3 42 +29 +29 жарко 1012.7 988.2
н/о н/о +28.9 +13.9 40 +31 +31 жарко 1011.8 987.5
н/о н/о +28.9 +13.9 40 +31 +31 жарко 1011.6 987.2
н/о н/о +27.8 +13.9 42 +30 +30 жарко 1011.3 986.9
н/о н/о +26.7 +13.9 45 +29 +29 жарко 1011.1 986.6
н/о н/о +25.6 +13.9 48 +28 +28 жарко 1011.3 986.9 +25.6 +28.9
н/о н/о +22.2 +15.0 64 +26 +26 душно 1011.7 987.2
н/о н/о +20.0 +14.4 70 +22 +22 комфорт 1012.3 987.9
н/о н/о +18.3 +14.4 78 +19 +19 1012.4 987.9
н/о н/о +17.2 +13.9 81 +17 +17 1012.1 987.9
н/о н/о +16.7 +13.9 84 +17 +17 1011.9 987.5
н/о н/о +15.6 +13.3 86 +15 +15 1011.5 987.2 +15.6 +25.0
Местоположение метеостанции Saint Johnsbury: широта 44.4194 долгота -72.0194 высота над уровнем моря 212 м.
В архиве по умолчанию представлена погода в Сент-Джонсбери за последние 1-2 суток. Обновление информации о фактической погоде в базе происходит ежечасно! Архивные данные за месяц целиком и за предыдущие месяцы Вы можете получить, выбрав интересующий диапазон дат из раскрывающегося списка и нажав кнопку "Ввод!".
Внимание! Архив погоды МЕТАР в базе сайта по станциям, не включенным в климатический монитор, хранится не более 60 дней. Нет смысла пытаться выбрать более раннюю дату.
*Определитесь, кто Вы:
Внимание! Время в таблицах - местное (без учета летнего времени). Для получения всемирного времени необходимо вычесть поправку, которая равна -5 ч.
Смотрите также архив погоды в соседних городах и на ближайших метеорологических станциях:
Партнеры нашего сайта:      
Пояснения к столбцам:
  • Ветер - указаны скорость ветра в м/с - средняя за 10 мин, порывы в срок и между сроками (в фигурных скобках) и направление, откуда дует ветер: С - северный,
  • СВ - северо-восточный, В - восточный, ЮВ - юго-восточный, Ю - южный, ЮЗ - юго-западный, З - западный, СЗ - северо-западный.
  • Видимость - горизонтальная дальность видимости в метрах или километрах. При видимости от 1 до 10 км при отсутствии осадков обычно наблюдается дымка, при ухудшении видимости до 1 км и менее - туман. В сухую погоду видимость может ухудшаться дымом, пылью или мглою.
  • Явления - указаны атмосферные явления, наблюдавшиеся в срок или в последний час перед сроком; фигурными скобками обозначены явления, наблюдавшиеся между сроками (за 1-3 часа до срока); квадратными скобками обозначены град или гололедные отложения с указанием их диаметра в мм.
  • Облачность - указаны через наклонную черту общая и нижняя облачность в баллах и высота нижней границы облаков в метрах; квадратными скобками обозначены формы облаков: Ci - перистые, Cs - перисто-слоистые, Cc - перисто-кучевые, Ac - высококучевые, As - высокослоистые, Sc - слоисто-кучевые, Ns - слоисто-дождевые, Cu - кучевые, Cb - кучево-дождевые. Подробнее классификацию облаков см. в Атласе облаков (PDF).
  • T - Температура воздуха - температура, измеренная на высоте 2 м над землей.
  • Td - Температура точки росы - температура, при понижении до которой содержащийся в воздухе водяной пар достигнет насыщения.
  • f - Относительная влажность воздуха - влажноcть воздуха, измеренная на высоте 2 м над землей.
  • Te - Эффективная температура - температура, которую ощущает одетый по сезону человек в тени. Характеристика душности погоды. При расчете учитывается влияние влажности воздуха и скорости ветра на теплоощущения человека.
  • Tes - Эффективная температура на солнце - температура, которую ощущает человек, с поправкой на солнечный нагрев. Характеристика знойности погоды. Зависит от высоты солнца над горизонтом, облачности и скорости ветра. Ночью, в пасмурную погоду, а также при ветре 12 м/с и более поправка равна нулю.
  • P - Атмосферное давление - приведенное к уровню моря атмосферное давление.
  • Po - Атмосферное давление - измеренное на уровне метеостанции атмосферное давление.
  • Tmin - Минимальная температура - минимум температуры воздуха на высоте 2 м над землей.
  • Tmax - Максимальная температура - максимум температуры воздуха на высоте 2 м над землей.
  • R - Количество осадков - Количество выпавших осадков за период времени, мм. При наведении курсора мыши на число - период времени, за который выпало указанное количество осадков.
  • R24 - Количество осадков - Количество выпавших осадков за 24 часа, мм.
  • S - Снежный покров - Высота снежного покрова, см. При наведении курсора мыши на число - состояние снежного покрова и степень покрытия местности в баллах.